Location: St Paul
(33.9360°N, 83.4200°W)
Time: 05:16:09
(UTC-04:00)

Cosmos 1727 Rocket - Pass Details

Date: 06 October 2017
Orbit: 962 x 996 km, 82.9° (Epoch: 18 October)

Event Time Altitude Azimuth Distance (km) Brightness Sun altitude
Rises 20:46:23 0° 358° (N) 3,712 7.2 -20.6°
Reaches altitude 10° 20:48:59 10° 3° (N) 2,763 6.4 -21.2°
Maximum altitude 20:55:13 57° 82° (E) 1,159 4.0 -22.4°
Enters shadow 20:57:54 34° 144° (SE) 1,587 4.7 -23.0°
